DAL2179 KCHS-KATL

Flight info

Callsign DAL2179
Flight time 0h 48m
Altitude 32000
Route STUNO1 ALD EEWOK JJEDI4
Aircraft MD88/M-SDFGIRWY/S

Departure

Time 2026-05-09 06:28
Airport Charleston International Airport (KCHS)

Arrival

Time 2026-05-09 07:17
Airport Hartsfield Jackson Atlanta International Airport (KATL)
Time Latitude Longitude Altitude Speed Heading
2026-05-09 06:02 32.90436 -80.04608 50 ft 0 kts 237°
2026-05-09 06:21 32.90435 -80.04609 52 ft 0 kts 238°
2026-05-09 06:21 32.90434 -80.04613 52 ft 3 kts 248°
2026-05-09 06:21 32.90434 -80.04644 51 ft 2 kts 288°
2026-05-09 06:21 32.90436 -80.04650 48 ft 0 kts 297°
2026-05-09 06:22 32.90443 -80.04668 52 ft 5 kts 295°
2026-05-09 06:22 32.90476 -80.04723 53 ft 10 kts 321°
2026-05-09 06:22 32.90532 -80.04771 52 ft 9 kts 325°
2026-05-09 06:22 32.90591 -80.04783 53 ft 9 kts 17°
2026-05-09 06:23 32.90638 -80.04745 56 ft 8 kts 26°
2026-05-09 06:23 32.90686 -80.04750 54 ft 7 kts 336°
2026-05-09 06:23 32.90730 -80.04781 57 ft 8 kts 326°
2026-05-09 06:23 32.90774 -80.04789 56 ft 4 kts 360°
2026-05-09 06:24 32.90786 -80.04789 58 ft 2 kts
2026-05-09 06:24 32.90827 -80.04782 59 ft 23 kts 10°
2026-05-09 06:24 32.90922 -80.04826 55 ft 13 kts 321°
2026-05-09 06:25 32.91001 -80.04886 60 ft 14 kts 327°
2026-05-09 06:25 32.91093 -80.04958 60 ft 18 kts 328°
2026-05-09 06:25 32.91179 -80.04989 54 ft 10 kts 18°
2026-05-09 06:25 32.91218 -80.04944 61 ft 6 kts 55°
2026-05-09 06:26 32.91227 -80.04929 64 ft 0 kts 56°
2026-05-09 06:26 32.91234 -80.04916 57 ft 5 kts 56°
2026-05-09 06:26 32.91263 -80.04863 57 ft 11 kts 58°
2026-05-09 06:27 32.91246 -80.04773 61 ft 10 kts 140°
2026-05-09 06:27 32.91235 -80.04763 62 ft 0 kts 147°
2026-05-09 06:27 32.91146 -80.04700 62 ft 40 kts 149°
2026-05-09 06:28 32.90724 -80.04382 53 ft 105 kts 148°
2026-05-09 06:28 32.89951 -80.03776 55 ft 160 kts 144°
2026-05-09 06:28 32.88927 -80.03008 515 ft 178 kts 150°
2026-05-09 06:28 32.87891 -80.02341 1406 ft 178 kts 151°
2026-05-09 06:29 32.86733 -80.01595 1783 ft 206 kts 150°
2026-05-09 06:29 32.85368 -80.00805 2097 ft 230 kts 165°
2026-05-09 06:29 32.83764 -80.01017 2563 ft 244 kts 209°
2026-05-09 06:29 32.82646 -80.02537 3084 ft 254 kts 249°
2026-05-09 06:30 32.82561 -80.04640 3603 ft 260 kts 280°
2026-05-09 06:30 32.82988 -80.06729 4293 ft 262 kts 283°
2026-05-09 06:30 32.83463 -80.08821 4982 ft 269 kts 285°
2026-05-09 06:30 32.84094 -80.10949 5736 ft 276 kts 290°
2026-05-09 06:31 32.84850 -80.13073 6491 ft 281 kts 291°
2026-05-09 06:31 32.85642 -80.15212 7245 ft 284 kts 291°
2026-05-09 06:31 32.86441 -80.17373 7996 ft 286 kts 291°
2026-05-09 06:31 32.87215 -80.19561 8754 ft 286 kts 287°
2026-05-09 06:32 32.87805 -80.21820 9497 ft 285 kts 283°
2026-05-09 06:32 32.88306 -80.24097 10248 ft 285 kts 281°
2026-05-09 06:32 32.88781 -80.26351 10987 ft 285 kts 281°
2026-05-09 06:33 32.89759 -80.31087 11780 ft 310 kts 280°
2026-05-09 06:33 32.90282 -80.33650 11959 ft 328 kts 280°
2026-05-09 06:33 32.90836 -80.36354 12186 ft 343 kts 280°
2026-05-09 06:34 32.92022 -80.41925 13348 ft 348 kts 281°
2026-05-09 06:34 32.92644 -80.44718 14098 ft 349 kts 281°
2026-05-09 06:34 32.93275 -80.47517 14820 ft 350 kts 281°
2026-05-09 06:34 32.93884 -80.50336 15528 ft 351 kts 278°
2026-05-09 06:35 32.94262 -80.53213 16210 ft 352 kts 274°
2026-05-09 06:35 32.94518 -80.56082 16882 ft 353 kts 273°
2026-05-09 06:35 32.94754 -80.59000 17530 ft 355 kts 273°
2026-05-09 06:35 32.94992 -80.61944 18094 ft 358 kts 273°
2026-05-09 06:36 32.95238 -80.64904 18655 ft 360 kts 274°
2026-05-09 06:36 32.95498 -80.67883 19287 ft 361 kts 274°
2026-05-09 06:36 32.95769 -80.70863 19917 ft 363 kts 274°
2026-05-09 06:36 32.96047 -80.73832 20403 ft 367 kts 274°
2026-05-09 06:37 32.96334 -80.76859 20896 ft 369 kts 274°
2026-05-09 06:37 32.96627 -80.79919 21374 ft 373 kts 274°
2026-05-09 06:37 32.96922 -80.82995 21929 ft 374 kts 274°
2026-05-09 06:37 32.97215 -80.86078 22462 ft 376 kts 274°
2026-05-09 06:38 32.97509 -80.89172 22969 ft 377 kts 274°
2026-05-09 06:38 32.97805 -80.92288 23461 ft 379 kts 274°
2026-05-09 06:38 32.98099 -80.95417 23927 ft 382 kts 274°
2026-05-09 06:38 32.98392 -80.98569 24428 ft 383 kts 274°
2026-05-09 06:39 32.98687 -81.01731 24898 ft 385 kts 274°
2026-05-09 06:39 32.98983 -81.04906 25334 ft 387 kts 274°
2026-05-09 06:39 32.99279 -81.08106 25713 ft 390 kts 274°
2026-05-09 06:39 32.99579 -81.11327 26188 ft 391 kts 274°
2026-05-09 06:40 32.99881 -81.14553 26647 ft 392 kts 273°
2026-05-09 06:40 33.00184 -81.17793 27061 ft 394 kts 273°
2026-05-09 06:40 33.00484 -81.21029 27608 ft 392 kts 273°
2026-05-09 06:40 33.00781 -81.24197 28254 ft 387 kts 273°
2026-05-09 06:41 33.01078 -81.27368 28881 ft 383 kts 272°
2026-05-09 06:41 33.01399 -81.30510 29423 ft 381 kts 274°
2026-05-09 06:41 33.01780 -81.33624 29948 ft 379 kts 274°
2026-05-09 06:41 33.02172 -81.36718 30475 ft 376 kts 274°
2026-05-09 06:42 33.02567 -81.39781 31001 ft 372 kts 274°
2026-05-09 06:42 33.02960 -81.42817 31501 ft 369 kts 274°
2026-05-09 06:42 33.03355 -81.45851 31759 ft 372 kts 274°
2026-05-09 06:42 33.03755 -81.48921 31880 ft 378 kts 274°
2026-05-09 06:43 33.04575 -81.55233 31966 ft 391 kts 275°
2026-05-09 06:43 33.05412 -81.61707 31988 ft 396 kts 274°
2026-05-09 06:44 33.06254 -81.68201 31991 ft 395 kts 275°
2026-05-09 06:44 33.07103 -81.74634 31993 ft 395 kts 275°
2026-05-09 06:45 33.07962 -81.81106 31999 ft 395 kts 275°
2026-05-09 06:45 33.08827 -81.87586 31999 ft 396 kts 275°
2026-05-09 06:46 33.09701 -81.94072 31987 ft 396 kts 275°
2026-05-09 06:46 33.10693 -82.00538 31993 ft 396 kts 275°
2026-05-09 06:47 33.11582 -82.07007 31996 ft 392 kts 272°
2026-05-09 06:47 33.11916 -82.13442 32000 ft 390 kts 266°
2026-05-09 06:48 33.11788 -82.19868 31998 ft 381 kts 268°
2026-05-09 06:48 33.11918 -82.22968 31997 ft 369 kts 270°
2026-05-09 06:48 33.12154 -82.26001 32000 ft 365 kts 271°
2026-05-09 06:49 33.12769 -82.31997 32003 ft 365 kts 272°
2026-05-09 06:49 33.13433 -82.38043 32001 ft 369 kts 272°
2026-05-09 06:50 33.14102 -82.44131 32006 ft 371 kts 272°
2026-05-09 06:50 33.14754 -82.50186 32008 ft 368 kts 272°
2026-05-09 06:51 33.15078 -82.53219 31758 ft 369 kts 272°
2026-05-09 06:51 33.15404 -82.56262 31311 ft 368 kts 272°
2026-05-09 06:51 33.15728 -82.59291 30916 ft 367 kts 272°
2026-05-09 06:51 33.16052 -82.62323 30456 ft 369 kts 272°
2026-05-09 06:52 33.16376 -82.65375 29960 ft 372 kts 272°
2026-05-09 06:52 33.16703 -82.68449 29435 ft 373 kts 272°
2026-05-09 06:52 33.17027 -82.71507 28906 ft 369 kts 272°
2026-05-09 06:52 33.17348 -82.74535 28366 ft 366 kts 272°
2026-05-09 06:53 33.17662 -82.77488 27825 ft 361 kts 273°
2026-05-09 06:53 33.17972 -82.80451 27289 ft 359 kts 273°
2026-05-09 06:53 33.18272 -82.83399 26760 ft 357 kts 273°
2026-05-09 06:53 33.18569 -82.86331 26233 ft 355 kts 273°
2026-05-09 06:54 33.18865 -82.89246 25702 ft 353 kts 273°
2026-05-09 06:54 33.19161 -82.92151 25171 ft 351 kts 274°
2026-05-09 06:54 33.19456 -82.95039 24638 ft 349 kts 274°
2026-05-09 06:54 33.19749 -82.97909 24115 ft 347 kts 274°
2026-05-09 06:55 33.20044 -83.00763 23588 ft 346 kts 274°
2026-05-09 06:55 33.20335 -83.03597 23064 ft 344 kts 274°
2026-05-09 06:55 33.20626 -83.06426 22537 ft 342 kts 274°
2026-05-09 06:55 33.20917 -83.09236 22030 ft 340 kts 274°
2026-05-09 06:56 33.21201 -83.11994 21528 ft 338 kts 275°
2026-05-09 06:56 33.21485 -83.14773 21026 ft 337 kts 275°
2026-05-09 06:56 33.21768 -83.17545 20525 ft 335 kts 275°
2026-05-09 06:56 33.22050 -83.20303 20019 ft 333 kts 275°
2026-05-09 06:57 33.22331 -83.23041 19531 ft 331 kts 275°
2026-05-09 06:57 33.22611 -83.25769 19020 ft 330 kts 275°
2026-05-09 06:57 33.22890 -83.28491 18520 ft 329 kts 275°
2026-05-09 06:57 33.23160 -83.31202 18017 ft 328 kts 275°
2026-05-09 06:58 33.23423 -83.33895 17527 ft 326 kts 276°
2026-05-09 06:58 33.23688 -83.36577 17036 ft 324 kts 276°
2026-05-09 06:58 33.23953 -83.39236 16657 ft 317 kts 275°
2026-05-09 06:58 33.24207 -83.41767 16407 ft 296 kts 275°
2026-05-09 06:59 33.24444 -83.44127 16112 ft 277 kts 275°
2026-05-09 06:59 33.24671 -83.46383 15836 ft 271 kts 275°
2026-05-09 06:59 33.24888 -83.48585 15513 ft 264 kts 275°
2026-05-09 06:59 33.25101 -83.50779 15123 ft 265 kts 274°
2026-05-09 07:00 33.25317 -83.52950 14726 ft 262 kts 274°
2026-05-09 07:00 33.25530 -83.55086 14220 ft 263 kts 274°
2026-05-09 07:00 33.25740 -83.57261 13738 ft 263 kts 274°
2026-05-09 07:00 33.25950 -83.59427 13248 ft 262 kts 273°
2026-05-09 07:01 33.26165 -83.61586 12795 ft 261 kts 273°
2026-05-09 07:01 33.26380 -83.63739 12348 ft 260 kts 273°
2026-05-09 07:01 33.26591 -83.65881 11872 ft 260 kts 272°
2026-05-09 07:01 33.26801 -83.68026 11443 ft 259 kts 273°
2026-05-09 07:02 33.27008 -83.70161 11013 ft 258 kts 273°
2026-05-09 07:02 33.27214 -83.72291 10626 ft 256 kts 273°
2026-05-09 07:02 33.27415 -83.74381 10378 ft 250 kts 274°
2026-05-09 07:02 33.27611 -83.76422 10120 ft 246 kts 273°
2026-05-09 07:03 33.27797 -83.78443 9820 ft 245 kts 273°
2026-05-09 07:03 33.27973 -83.80437 9573 ft 243 kts 273°
2026-05-09 07:03 33.28153 -83.82447 9488 ft 242 kts 273°
2026-05-09 07:03 33.28339 -83.84437 9531 ft 236 kts 274°
2026-05-09 07:04 33.28525 -83.86329 9693 ft 224 kts 274°
2026-05-09 07:04 33.28711 -83.88160 9446 ft 221 kts 274°
2026-05-09 07:04 33.28894 -83.89983 9053 ft 222 kts 274°
2026-05-09 07:04 33.29076 -83.91807 8701 ft 221 kts 274°
2026-05-09 07:05 33.29258 -83.93625 8350 ft 220 kts 276°
2026-05-09 07:05 33.29804 -83.95312 8087 ft 223 kts 304°
2026-05-09 07:05 33.30880 -83.96682 7682 ft 228 kts 310°
2026-05-09 07:05 33.31999 -83.97999 7317 ft 229 kts 310°
2026-05-09 07:06 33.33134 -83.99337 6980 ft 228 kts 311°
2026-05-09 07:06 33.34275 -84.00656 6652 ft 228 kts 311°
2026-05-09 07:06 33.35418 -84.01962 6333 ft 227 kts 312°
2026-05-09 07:06 33.36734 -84.02980 6151 ft 230 kts 341°
2026-05-09 07:07 33.38343 -84.03158 6081 ft 235 kts 356°
2026-05-09 07:07 33.39991 -84.03141 6031 ft 239 kts 356°
2026-05-09 07:07 33.41650 -84.03133 6018 ft 236 kts 356°
2026-05-09 07:07 33.43305 -84.03117 6005 ft 240 kts 356°
2026-05-09 07:08 33.44976 -84.03092 5990 ft 240 kts 356°
2026-05-09 07:08 33.46085 -84.03081 5986 ft 241 kts 354°
2026-05-09 07:08 33.47752 -84.03214 5989 ft 239 kts 349°
2026-05-09 07:08 33.49393 -84.03471 5990 ft 239 kts 347°
2026-05-09 07:09 33.51572 -84.03869 5993 ft 239 kts 346°
2026-05-09 07:09 33.52678 -84.04077 5992 ft 238 kts 346°
2026-05-09 07:09 33.54312 -84.04385 5992 ft 238 kts 347°
2026-05-09 07:09 33.55950 -84.04688 5992 ft 238 kts 347°
2026-05-09 07:10 33.57585 -84.04984 5992 ft 238 kts 347°
2026-05-09 07:10 33.59223 -84.05270 5988 ft 238 kts 347°
2026-05-09 07:10 33.60835 -84.05564 5983 ft 236 kts 343°
2026-05-09 07:10 33.62265 -84.06400 5986 ft 227 kts 310°
2026-05-09 07:11 33.62994 -84.08005 5996 ft 219 kts 279°
2026-05-09 07:11 33.63167 -84.09814 5989 ft 218 kts 272°
2026-05-09 07:11 33.63305 -84.11620 5715 ft 217 kts 274°
2026-05-09 07:11 33.63423 -84.13395 5389 ft 210 kts 269°
2026-05-09 07:12 33.63449 -84.15131 5107 ft 207 kts 269°
2026-05-09 07:12 33.63468 -84.16848 4832 ft 205 kts 268°
2026-05-09 07:12 33.63469 -84.18556 4582 ft 205 kts 268°
2026-05-09 07:12 33.63473 -84.20272 4324 ft 205 kts 268°
2026-05-09 07:13 33.63471 -84.21985 4048 ft 205 kts 268°
2026-05-09 07:13 33.63470 -84.23662 3774 ft 195 kts 268°
2026-05-09 07:13 33.63471 -84.25213 3552 ft 175 kts 268°
2026-05-09 07:13 33.63473 -84.26565 3362 ft 154 kts 268°
2026-05-09 07:14 33.63469 -84.27810 3119 ft 146 kts 268°
2026-05-09 07:14 33.63467 -84.29022 2913 ft 145 kts 268°
2026-05-09 07:14 33.63471 -84.30244 2761 ft 147 kts 268°
2026-05-09 07:14 33.63484 -84.31483 2635 ft 152 kts 270°
2026-05-09 07:15 33.63508 -84.32760 2579 ft 153 kts 270°
2026-05-09 07:15 33.63505 -84.34022 2375 ft 152 kts 268°
2026-05-09 07:15 33.63479 -84.35305 2098 ft 154 kts 268°
2026-05-09 07:15 33.63458 -84.36580 1848 ft 152 kts 270°
2026-05-09 07:16 33.63468 -84.37835 1606 ft 150 kts 270°
2026-05-09 07:16 33.63462 -84.39083 1358 ft 148 kts 270°
2026-05-09 07:16 33.63467 -84.40306 1133 ft 145 kts 270°
2026-05-09 07:16 33.63472 -84.41485 1007 ft 134 kts 270°
2026-05-09 07:17 33.63473 -84.42362 1009 ft 69 kts 270°
2026-05-09 07:17 33.63475 -84.42711 1007 ft 29 kts 269°
2026-05-09 07:17 33.63481 -84.42926 1007 ft 23 kts 278°
2026-05-09 07:17 33.63522 -84.43091 1006 ft 19 kts 297°
2026-05-09 07:18 33.63577 -84.43221 1006 ft 14 kts 287°
2026-05-09 07:18 33.63610 -84.43304 1006 ft 10 kts 327°
2026-05-09 07:18 33.63655 -84.43353 1006 ft 8 kts 309°
2026-05-09 07:18 33.63684 -84.43398 1006 ft 6 kts 306°
2026-05-09 07:19 33.63696 -84.43418 1007 ft 0 kts 307°
2026-05-09 07:19 33.63696 -84.43419 1007 ft 1 kts 306°
2026-05-09 07:19 33.63702 -84.43430 1007 ft 3 kts 304°
2026-05-09 07:19 33.63721 -84.43463 1007 ft 8 kts 302°
2026-05-09 07:20 33.63748 -84.43517 1007 ft 4 kts 301°